[[{"header":{"parameterUnit":"m.s-1","parameterCategory":2,"la1":30.2991,"la2":30.254,"lo1":-89.0895,"lo2":-89.0444,"dy":0.0017,"dx":0.0017,"nx":28,"ny":28,"refTime":"2025-04-27T09:00:00:Z","depth":"0","parameterNumber":2,"parameterNumberName":"U-component_of_CURRENTS"},"data":[0,0,0,0,0,0,0,0,0,0,0,0,0,0,0,0,0,0,0,0,0,0,0,0,0,0,0,0,0,0,0,0,0,0,0,0,0,0,0,0,0,0,0,0,0,0,0,0,0,0,0,0,0,0,0,0,0,0,0.2432,0.2433,0,0.2503,0.2504,0.2504,0.2524,0.2524,0.2523,0.2523,0.2562,0.2563,0.2564,0,0,0,0,0,0,0,0,0,0,0,0,0,0.2303,0.2305,0.2432,0.2433,0.2434,0.2503,0.2504,0.2505,0.2524,0.2524,0.2523,0.2523,0.2562,0.2563,0.2565,0,0,0,0,0,0,0,0,0,0,0,0,0,0.2362,0.2305,0.2431,0.2454,0.2457,0.2503,0.2504,0.2505,0.2524,0.2524,0.2523,0.2523,0.2561,0.2563,0.2565,0.2581,0,0,0.257,0.2571,0,0,0,0,0,0,0,0,0.2359,0.2367,0.2449,0.2452,0.2456,0.2507,0.2473,0.253,0.2524,0.2496,0.2523,0.2523,0.2542,0.2546,0.2557,0.2583,0.2585,0.257,0.2571,0.2572,0.2573,0,0,0,0,0,0,0,0.2355,0.2364,0.2457,0.2451,0.2455,0.2457,0.2465,0.2484,0.2517,0.2498,0.25,0.2513,0.2544,0.2555,0.2558,0.2585,0.257,0.2572,0.2573,0.2574,0.2678,0.268,0,0,0,0,0,0,0.2353,0.236,0.2455,0.246,0.2409,0.246,0.2469,0.2488,0.2518,0.2523,0.2513,0.2513,0.2552,0.2555,0.2559,0.262,0.2572,0.2574,0.2575,0.2677,0.2679,0.2681,0,0,0,0,0,0,0.235,0.2361,0.2452,0.2413,0.2425,0.2463,0.2484,0.249,0.2505,0.253,0.2534,0.2522,0.2552,0.2556,0.2592,0.262,0.2575,0.2576,0.2675,0.2677,0.268,0.2716,0,0,0,0,0,0,0.2346,0.2359,0.2368,0.2413,0.2427,0.2487,0.2485,0.2492,0.2514,0.2515,0.2539,0.2542,0.2552,0.2589,0.2594,0.2621,0.2578,0.2672,0.2676,0.2679,0.2712,0.2719,0.2725,0,0,0,0,0,0.2341,0.2357,0.2368,0.2379,0.244,0.2488,0.2495,0.2518,0.2514,0.2528,0.2549,0.2542,0.2613,0.2592,0.2597,0.2626,0.2671,0.2675,0.2679,0.2709,0.2718,0.2725,0,0,0,0,0,0,0.2307,0.2362,0.2375,0.2407,0.2447,0.2492,0.2507,0.252,0.2547,0.2548,0.256,0.2567,0.2611,0.2614,0.2591,0.2667,0.2642,0.2647,0.2664,0.2672,0.2678,0.2669,0.2579,0,0,0,0,0,0.2304,0.2328,0.2383,0.2407,0.2428,0.2466,0.2485,0.2506,0.2539,0.255,0.2569,0.2595,0.2631,0.2646,0.2674,0.271,0.2733,0.2734,0.274,0.2745,0.2743,0.2789,0.2799,0.2693,0.2693,0.2693,0,0,0.2296,0.233,0.2343,0.2401,0.2431,0.2475,0.2476,0.2514,0.2551,0.255,0.2596,0.2617,0.2647,0.2695,0.2715,0.27,0.2799,0.275,0.2754,0.2749,0.2794,0.2804,0.2813,0.2696,0.2695,0.2695,0,0,0.23,0.2326,0.2352,0.2391,0.2445,0.2477,0.2489,0.2541,0.2562,0.2611,0.2627,0.2661,0.2708,0.2739,0.276,0.2816,0.2832,0.2828,0.285,0.2896,0.2905,0.2912,0.3001,0.3016,0.2829,0.2829,0.2829,0,0.2286,0.2336,0.2366,0.2409,0.2445,0.2479,0.2524,0.2558,0.2613,0.2639,0.2631,0.2714,0.2731,0.2799,0.282,0.2829,0.287,0.2817,0.2903,0.2911,0.2918,0.3006,0.3022,0.2831,0.2831,0.2831,0.2831,0,0.232,0.2361,0.2382,0.2449,0.2489,0.2532,0.259,0.2627,0.2652,0.2688,0.2751,0.2777,0.2825,0.2841,0.2846,0.2914,0.2936,0.2906,0.2879,0.2931,0.3021,0.3038,0.2834,0.2834,0.2833,0.2832,0,0,0.2286,0.2385,0.2392,0.2431,0.2516,0.255,0.2619,0.2692,0.2729,0.2776,0.2833,0.2885,0.2891,0.2915,0.2928,0.2958,0.3056,0.2953,0.2954,0.3034,0.3199,0.3239,0.326,0.3039,0.3041,0.3043,0.3257,0,0.2304,0.2385,0.2433,0.2507,0.2556,0.2614,0.2669,0.2736,0.2785,0.2846,0.2887,0.294,0.2925,0.2947,0.298,0.3041,0.3094,0.3003,0.3142,0.3147,0.3169,0.3278,0.3191,0.3375,0.3273,0.3276,0.3278,0,0.2322,0.238,0.2454,0.2544,0.2568,0.2609,0.2699,0.2754,0.285,0.2887,0.2949,0.2988,0.3073,0.3026,0.3164,0.3111,0.3159,0.3191,0.32,0.3228,0.3216,0.3299,0.3409,0.3339,0.3303,0.3301,0.3299,0,0.2288,0.2389,0.2445,0.2479,0.2586,0.2618,0.2669,0.2761,0.2828,0.2914,0.2989,0.3061,0.3142,0.319,0.3294,0.3232,0.3448,0.337,0.3459,0.3464,0.3412,0.3409,0.3456,0.3454,0.3453,0.3453,0.3452,0,0.2292,0.2335,0.2426,0.2459,0.2514,0.2591,0.2658,0.2713,0.283,0.2924,0.3003,0.3107,0.3183,0.3325,0.3354,0.3506,0.3515,0.3499,0.3525,0.343,0.3425,0.3376,0.3327,0.3461,0.3459,0.3457,0.3456,0,0.2247,0.2314,0.2375,0.2473,0.2501,0.2532,0.266,0.2717,0.2832,0.2965,0.3011,0.3198,0.3375,0.3489,0.3614,0.3627,0.3643,0.3761,0.3676,0.3686,0.3645,0.36,0.3541,0.3432,0.3877,0.3879,0.3881,0,0.2231,0.2262,0.2358,0.2392,0.2432,0.2503,0.256,0.2686,0.2763,0.302,0.3087,0.333,0.3478,0.3741,0.3804,0.3925,0.3766,0.39,0.3735,0.3671,0.364,0.3447,0.3342,0.3708,0.3708,0.3709,0.3709,0,0.2197,0.2225,0.2278,0.2345,0.2398,0.2474,0.2565,0.2632,0.2801,0.2948,0.3144,0.3293,0.3595,0.3702,0.3911,0.3946,0.3726,0.391,0.3845,0.3531,0.3318,0.3216,0.3572,0.3711,0.3711,0.3711,0.3711,0.3711,0.2151,0.2171,0.2235,0.2291,0.2356,0.2418,0.2445,0.2575,0.2705,0.2893,0.3086,0.3282,0.3555,0.3831,0.3853,0.3875,0.377,0.3772,0.3741,0.3563,0.3386,0.3783,0.3935,0.3936,0.3937,0.3938,0.3938,0,0.2086,0.2128,0.2184,0.2241,0.2276,0.2339,0.2431,0.2454,0.2557,0.2782,0.2947,0.3254,0.3453,0.3634,0.3799,0.3718,0.3486,0.3641,0.3323,0.3236,0.3622,0.3541,0.361,0.361,0.361,0.361,0.361,0.361,0.2053,0.208,0.2118,0.2145,0.2183,0.2189,0.2214,0.2274,0.2398,0.2587,0.2761,0.2957,0.3351,0.3673,0.3689,0.3596,0.3289,0.3199,0.3136,0.3411,0.3417,0.3423,0.3335,0.3359,0.3359,0.2601,0.2595,0.2591]},{"header":{"parameterUnit":"m.s-1","parameterCategory":2,"la1":30.2991,"la2":30.254,"lo1":-89.0895,"lo2":-89.0444,"dy":0.0017,"dx":0.0017,"nx":28,"ny":28,"refTime":"2025-04-27T09:00:00:Z","depth":"0","parameterNumber":3,"parameterNumberName":"V-component_of_CURRENTS"},"data":[0,0,0,0,0,0,0,0,0,0,0,0,0,0,0,0,0,0,0,0,0,0,0,0,0,0,0,0,0,0,0,0,0,0,0,0,0,0,0,0,0,0,0,0,0,0,0,0,0,0,0,0,0,0,0,0,0,0,-0.0024,-0.0025,0,-0.0085,-0.0086,-0.0087,-0.0143,-0.0143,-0.0144,-0.0144,-0.0271,-0.0274,-0.0277,0,0,0,0,0,0,0,0,0,0,0,0,0,-0.0022,-0.0021,-0.0024,-0.0025,-0.0025,-0.0085,-0.0086,-0.0087,-0.0143,-0.0143,-0.0144,-0.0145,-0.027,-0.0273,-0.0277,0,0,0,0,0,0,0,0,0,0,0,0,0,-0.0048,-0.0021,-0.0024,-0.0059,-0.0063,-0.0085,-0.0086,-0.0088,-0.0142,-0.0143,-0.0144,-0.0145,-0.0269,-0.0273,-0.0277,-0.0288,0,0,-0.0291,-0.0292,0,0,0,0,0,0,0,0,-0.0047,-0.0048,-0.0053,-0.0057,-0.0061,-0.0106,-0.0132,-0.0157,-0.0142,-0.0114,-0.0144,-0.0145,-0.022,-0.0229,-0.024,-0.0294,-0.0299,-0.0291,-0.0294,-0.0295,-0.0297,0,0,0,0,0,0,0,-0.0045,-0.0046,-0.005,-0.0054,-0.0059,-0.0095,-0.0099,-0.0137,-0.0164,-0.0116,-0.012,-0.0124,-0.0223,-0.0235,-0.0243,-0.0301,-0.0291,-0.0295,-0.0297,-0.0299,-0.04,-0.04,0,0,0,0,0,0,-0.003,-0.0044,-0.0048,-0.0052,-0.0054,-0.0094,-0.0099,-0.0092,-0.0162,-0.0173,-0.0124,-0.0127,-0.0227,-0.0238,-0.0248,-0.028,-0.0295,-0.0299,-0.0302,-0.04,-0.04,-0.04,0,0,0,0,0,0,-0.0029,-0.0029,-0.0045,-0.0049,-0.0054,-0.0092,-0.0085,-0.0093,-0.0104,-0.0167,-0.0179,-0.0127,-0.0228,-0.0242,-0.0279,-0.0285,-0.0301,-0.0305,-0.04,-0.04,-0.04,-0.0334,0,0,0,0,0,0,-0.0029,-0.0028,-0.0019,-0.0047,-0.0053,-0.005,-0.0084,-0.0093,-0.0105,-0.011,-0.0174,-0.0187,-0.023,-0.0272,-0.0283,-0.0291,-0.0309,-0.04,-0.04,-0.04,-0.0337,-0.0332,-0.0329,0,0,0,0,0,-0.0028,-0.0002,-0.0018,-0.0019,-0.0038,-0.0049,-0.0055,-0.0088,-0.0104,-0.0102,-0.0148,-0.0185,-0.0282,-0.0275,-0.0288,-0.0298,-0.04,-0.04,-0.04,-0.0338,-0.0333,-0.0329,0,0,0,0,0,0,0.0015,-0.0006,-0.0024,-0.0003,-0.0024,-0.0058,-0.0056,-0.008,-0.0113,-0.0119,-0.0181,-0.0196,-0.0234,-0.0271,-0.0262,-0.0328,-0.0349,-0.0352,-0.0297,-0.0293,-0.0289,-0.0281,-0.0312,0,0,0,0,0,0.0027,0.0033,0.0006,0.0022,0.0016,-0.002,-0.0029,-0.005,-0.0083,-0.0098,-0.0144,-0.0196,-0.0244,-0.0271,-0.0315,-0.0345,-0.0373,-0.0362,-0.0358,-0.0354,-0.0357,-0.0411,-0.0412,-0.0401,-0.0401,-0.0401,0,0,0.0048,0.0038,0.0041,0.003,0.0012,0.0007,-0.0027,-0.0031,-0.0043,-0.0107,-0.0133,-0.0181,-0.0249,-0.0286,-0.0307,-0.0318,-0.0364,-0.0355,-0.0351,-0.0356,-0.0411,-0.0412,-0.0413,-0.0401,-0.0401,-0.0401,0,0,0.0091,0.0085,0.0098,0.0084,0.0062,0.0038,0.004,0.0007,-0.0015,-0.0042,-0.0097,-0.0146,-0.0209,-0.0264,-0.03,-0.0301,-0.034,-0.0315,-0.0292,-0.0344,-0.0345,-0.0347,-0.0343,-0.0345,-0.0315,-0.0315,-0.0315,0,0.0115,0.0128,0.0101,0.0106,0.0099,0.0055,0.0064,0.0036,-0.0006,-0.0025,-0.0041,-0.0148,-0.0202,-0.0265,-0.027,-0.0293,-0.0309,-0.0301,-0.0338,-0.034,-0.0343,-0.034,-0.0343,-0.0312,-0.0312,-0.0312,-0.0313,0,0.0156,0.0165,0.0176,0.016,0.0149,0.0155,0.0113,0.0097,0.0065,0.0028,-0.0028,-0.0102,-0.0167,-0.0196,-0.0236,-0.0288,-0.0285,-0.0323,-0.0345,-0.034,-0.0337,-0.0341,-0.0307,-0.0308,-0.0309,-0.031,0,0,0.0213,0.0206,0.0208,0.0212,0.018,0.018,0.0159,0.0126,0.0121,0.0057,0.0039,-0.0065,-0.0106,-0.015,-0.0211,-0.0263,-0.0287,-0.0296,-0.03,-0.0283,-0.0359,-0.0307,-0.0307,-0.0332,-0.0334,-0.0335,-0.0333,0,0.0251,0.0279,0.0256,0.0276,0.0288,0.0241,0.023,0.0192,0.0153,0.0128,0.0031,-0.0008,-0.0089,-0.0109,-0.0181,-0.0255,-0.0302,-0.0281,-0.0375,-0.0377,-0.0326,-0.0312,-0.0309,-0.0304,-0.0338,-0.0339,-0.0339,0,0.0292,0.0306,0.0336,0.0339,0.034,0.0338,0.0319,0.0303,0.0241,0.0214,0.0141,0.008,-0.0007,-0.007,-0.0211,-0.019,-0.0273,-0.0337,-0.0339,-0.0322,-0.0335,-0.0325,-0.0312,-0.0519,-0.0346,-0.0346,-0.0345,0,0.0345,0.0361,0.0389,0.0389,0.0383,0.0383,0.0372,0.0326,0.034,0.027,0.0295,0.0153,0.0134,-0.002,-0.014,-0.0181,-0.0266,-0.0341,-0.0374,-0.0369,-0.0401,-0.0397,-0.0597,-0.0452,-0.0452,-0.0452,-0.0452,0,0.0393,0.0419,0.0419,0.0437,0.0478,0.0441,0.0476,0.0443,0.0433,0.0484,0.0349,0.0385,0.0144,0.0076,-0.0089,-0.0206,-0.0228,-0.036,-0.0374,-0.0372,-0.0365,-0.0576,-0.0686,-0.0452,-0.0452,-0.0452,-0.0452,0,0.0446,0.0445,0.0486,0.0494,0.0506,0.053,0.0569,0.0604,0.058,0.0651,0.0648,0.0571,0.0489,0.0283,0.0076,-0.009,-0.0345,-0.0284,-0.0229,-0.0238,-0.049,-0.0593,-0.0771,-0.0867,-0.0343,-0.0342,-0.0341,0,0.0475,0.0502,0.0541,0.0579,0.0587,0.0629,0.0677,0.0671,0.0729,0.0796,0.0857,0.0807,0.0814,0.0551,0.0229,-0.0035,-0.0258,-0.0214,-0.0323,-0.0493,-0.0621,-0.0701,-0.0777,-0.0326,-0.0325,-0.0324,-0.0324,0,0.0538,0.0548,0.0585,0.0667,0.0726,0.0804,0.0873,0.0952,0.0989,0.1085,0.1211,0.123,0.099,0.0732,0.0362,0.0143,-0.0359,-0.0203,-0.043,-0.0659,-0.0714,-0.0814,-0.03,-0.0316,-0.0317,-0.0318,-0.0318,-0.0318,0.0589,0.063,0.0686,0.0766,0.0849,0.0976,0.1072,0.1183,0.1334,0.1511,0.15,0.1587,0.1165,0.0661,0.0343,-0.0266,-0.0292,-0.0487,-0.0601,-0.0667,-0.0769,-0.0195,-0.02,-0.02,-0.02,-0.02,-0.02,0,0.0653,0.0706,0.0787,0.0897,0.1015,0.1038,0.1214,0.1342,0.1567,0.1727,0.1858,0.1713,0.1209,0.0645,-0.0154,-0.0595,-0.0803,-0.0852,-0.1027,-0.1091,-0.0631,-0.0642,-0.0682,-0.0681,-0.0681,-0.0681,-0.0681,-0.0681,0.0694,0.0784,0.0828,0.1028,0.1117,0.1303,0.1422,0.1625,0.1776,0.2007,0.2069,0.2072,0.1632,0.0207,-0.0771,-0.1017,-0.1375,-0.1423,-0.1588,-0.1343,-0.132,-0.1299,-0.134,-0.1524,-0.1526,-0.2023,-0.2028,-0.2032]}],[{"header":{"parameterUnit":"m.s-1","parameterCategory":2,"la1":30.2991,"la2":30.254,"lo1":-89.0895,"lo2":-89.0444,"dy":0.0017,"dx":0.0017,"nx":28,"ny":28,"refTime":"2025-04-27T09:00:00:Z","depth":"2","parameterNumber":2,"parameterNumberName":"U-component_of_CURRENTS"},"data":[0,0,0,0,0,0,0,0,0,0,0,0,0,0,0,0,0,0,0,0,0,0,0,0,0,0,0,0,0,0,0,0,0,0,0,0,0,0,0,0,0,0,0,0,0,0,0,0,0,0,0,0,0,0,0,0,0,0,0.2106,0.2107,0,0.2167,0.2168,0.2168,0.2183,0.2183,0.2183,0.2183,0.2238,0.2239,0.2241,0,0,0,0,0,0,0,0,0,0,0,0,0,0.2036,0.2036,0.2106,0.2107,0.2108,0.2167,0.2168,0.2168,0.2183,0.2183,0.2183,0.2183,0.2237,0.2239,0.2241,0,0,0,0,0,0,0,0,0,0,0,0,0,0.2075,0.2037,0.2105,0.2125,0.2128,0.2167,0.2168,0.2168,0.2183,0.2183,0.2183,0.2183,0.2237,0.2239,0.2241,0.2256,0,0,0.2248,0.2249,0,0,0,0,0,0,0,0,0.2073,0.2077,0.2121,0.2124,0.2127,0.2171,0.2163,0.2199,0.2183,0.2158,0.2183,0.2183,0.2217,0.2221,0.2227,0.2258,0.2261,0.2248,0.2249,0.225,0.2251,0,0,0,0,0,0,0,0.207,0.2075,0.2126,0.2123,0.2126,0.2144,0.2148,0.217,0.2184,0.2161,0.2163,0.2176,0.2218,0.2225,0.2229,0.2262,0.2248,0.225,0.2251,0.2252,0.2358,0.236,0,0,0,0,0,0,0.2068,0.2072,0.2124,0.2128,0.2104,0.2145,0.215,0.2154,0.2184,0.219,0.2176,0.2176,0.2221,0.2226,0.2231,0.2297,0.225,0.2252,0.2254,0.2357,0.2358,0.236,0,0,0,0,0,0,0.2066,0.2072,0.2122,0.2105,0.2113,0.2147,0.2151,0.2155,0.2171,0.2197,0.2201,0.2188,0.2222,0.2228,0.2272,0.2297,0.2253,0.2255,0.2355,0.2357,0.2359,0.2399,0,0,0,0,0,0,0.2064,0.2071,0.2079,0.2105,0.2114,0.2153,0.2151,0.2157,0.218,0.2182,0.2209,0.2213,0.2222,0.2269,0.2274,0.23,0.2257,0.2353,0.2356,0.2359,0.2396,0.2403,0.2408,0,0,0,0,0,0.2061,0.2071,0.2079,0.2086,0.2122,0.2154,0.216,0.2181,0.2181,0.2193,0.222,0.2213,0.229,0.2272,0.2278,0.2305,0.2352,0.2355,0.2358,0.2394,0.2402,0.2408,0,0,0,0,0,0,0.2037,0.2075,0.2084,0.2102,0.2131,0.2158,0.2174,0.2186,0.2215,0.222,0.2234,0.2242,0.2291,0.2293,0.2273,0.2344,0.2319,0.2323,0.2343,0.2351,0.2357,0.2422,0.2259,0,0,0,0,0,0.2038,0.2059,0.2093,0.2107,0.2122,0.2148,0.2166,0.2182,0.2211,0.2223,0.2245,0.2273,0.2308,0.2325,0.2354,0.2391,0.2417,0.2412,0.2418,0.2423,0.2481,0.2504,0.2518,0.2371,0.2371,0.2371,0,0,0.2033,0.2057,0.2068,0.2105,0.2125,0.216,0.2157,0.2189,0.2221,0.2225,0.2274,0.2298,0.2324,0.2373,0.2394,0.2378,0.2479,0.2427,0.2431,0.2488,0.2509,0.2523,0.2536,0.2373,0.2373,0.2373,0,0,0.2035,0.2052,0.2074,0.2103,0.2147,0.2171,0.2182,0.2221,0.224,0.2292,0.2306,0.2365,0.2394,0.244,0.246,0.252,0.2512,0.2502,0.2586,0.2605,0.2618,0.263,0.2684,0.27,0.2502,0.2502,0.2502,0,0.2029,0.2061,0.2085,0.2118,0.2152,0.2178,0.2216,0.2241,0.2291,0.2326,0.2315,0.242,0.2443,0.2526,0.256,0.2539,0.255,0.2549,0.2614,0.2626,0.2637,0.269,0.2707,0.2504,0.2504,0.2504,0.2504,0,0.2053,0.2085,0.2099,0.2155,0.2193,0.2228,0.2274,0.2319,0.2349,0.2382,0.2468,0.2511,0.2579,0.2585,0.2604,0.2694,0.2677,0.2616,0.2594,0.2654,0.2706,0.2723,0.2508,0.2507,0.2506,0.2505,0,0,0.2025,0.2103,0.2109,0.2147,0.222,0.2252,0.2323,0.2399,0.245,0.2506,0.2583,0.2674,0.2699,0.273,0.2741,0.279,0.2884,0.2751,0.2751,0.2808,0.2951,0.289,0.2903,0.2808,0.2811,0.2814,0.2956,0,0.2039,0.2103,0.2147,0.2218,0.2258,0.2325,0.2381,0.2456,0.2516,0.2592,0.2663,0.2729,0.274,0.2778,0.2832,0.2876,0.2932,0.2855,0.2887,0.2891,0.2829,0.2922,0.2712,0.2816,0.2973,0.2976,0.2978,0,0.205,0.2097,0.2163,0.2258,0.2281,0.2332,0.2452,0.2506,0.2619,0.2664,0.2763,0.2801,0.2935,0.2894,0.3034,0.2973,0.2996,0.3019,0.3021,0.2978,0.2863,0.2782,0.2841,0.3006,0.3004,0.3002,0.3,0,0.2019,0.2111,0.2166,0.2197,0.2303,0.236,0.2423,0.2533,0.2602,0.2718,0.2791,0.2899,0.2987,0.303,0.3118,0.3068,0.3247,0.3154,0.3131,0.3126,0.2972,0.2948,0.3249,0.3249,0.3249,0.3248,0.3248,0,0.2019,0.2062,0.2155,0.2186,0.2257,0.2339,0.243,0.2508,0.2639,0.2719,0.282,0.2918,0.3026,0.3133,0.3158,0.323,0.327,0.3208,0.3172,0.2978,0.2955,0.3129,0.3113,0.3254,0.3252,0.3251,0.3251,0,0.1977,0.2034,0.2099,0.2208,0.2241,0.2292,0.2435,0.2505,0.2628,0.2748,0.2797,0.2986,0.3108,0.3206,0.3312,0.3298,0.3345,0.3344,0.3142,0.308,0.3206,0.319,0.3344,0.3344,0.3343,0.3343,0.3342,0,0.196,0.1985,0.2091,0.2131,0.2183,0.2272,0.2332,0.2474,0.2561,0.2772,0.2834,0.3022,0.3109,0.3282,0.3303,0.3352,0.3369,0.317,0.3041,0.3274,0.3222,0.3208,0.3194,0.2858,0.2854,0.285,0.2847,0,0.1924,0.1957,0.2009,0.2086,0.2154,0.223,0.2338,0.2402,0.256,0.2667,0.2814,0.2905,0.3097,0.3078,0.317,0.3152,0.3141,0.3098,0.34,0.2854,0.2822,0.2769,0.277,0.2816,0.2819,0.2821,0.2823,0.2824,0.1883,0.1906,0.1969,0.2038,0.2107,0.2167,0.2192,0.2308,0.2401,0.2521,0.2681,0.2744,0.2855,0.2885,0.2836,0.2822,0.3012,0.2883,0.2891,0.2903,0.281,0.2777,0.2748,0.275,0.2753,0.2755,0.2756,0,0.183,0.1868,0.1926,0.1989,0.2017,0.2093,0.2176,0.217,0.2208,0.2356,0.2447,0.2337,0.238,0.2471,0.242,0.2452,0.2393,0.2344,0.2246,0.2283,0.2315,0.2185,0.196,0.1957,0.1954,0.1951,0,0,0.1802,0.1821,0.1851,0.1869,0.192,0.192,0.1936,0.1935,0.2008,0.2004,0.2046,0.2268,0.2416,0.2137,0.2142,0.2036,0.2123,0.1964,0.262,0.2543,0.2569,0.2667,0.2516,0,0,0,0,0]},{"header":{"parameterUnit":"m.s-1","parameterCategory":2,"la1":30.2991,"la2":30.254,"lo1":-89.0895,"lo2":-89.0444,"dy":0.0017,"dx":0.0017,"nx":28,"ny":28,"refTime":"2025-04-27T09:00:00:Z","depth":"2","parameterNumber":3,"parameterNumberName":"V-component_of_CURRENTS"},"data":[0,0,0,0,0,0,0,0,0,0,0,0,0,0,0,0,0,0,0,0,0,0,0,0,0,0,0,0,0,0,0,0,0,0,0,0,0,0,0,0,0,0,0,0,0,0,0,0,0,0,0,0,0,0,0,0,0,0,-0.0172,-0.0172,0,-0.022,-0.0221,-0.0221,-0.0262,-0.0262,-0.0263,-0.0263,-0.0363,-0.0365,-0.0367,0,0,0,0,0,0,0,0,0,0,0,0,0,-0.0144,-0.0144,-0.0172,-0.0172,-0.0172,-0.022,-0.0221,-0.0221,-0.0262,-0.0262,-0.0263,-0.0263,-0.0362,-0.0365,-0.0368,0,0,0,0,0,0,0,0,0,0,0,0,0,-0.0171,-0.0144,-0.0171,-0.0197,-0.02,-0.022,-0.0221,-0.0222,-0.0262,-0.0262,-0.0263,-0.0263,-0.0361,-0.0365,-0.0368,-0.038,0,0,-0.0379,-0.038,0,0,0,0,0,0,0,0,-0.017,-0.0173,-0.0193,-0.0196,-0.0199,-0.0234,-0.0247,-0.0277,-0.0262,-0.024,-0.0263,-0.0264,-0.0323,-0.033,-0.0339,-0.0385,-0.0389,-0.0379,-0.0381,-0.0383,-0.0384,0,0,0,0,0,0,0,-0.0168,-0.0171,-0.0192,-0.0194,-0.0197,-0.0217,-0.0221,-0.0253,-0.028,-0.0242,-0.0245,-0.0248,-0.0326,-0.0336,-0.0342,-0.0391,-0.0379,-0.0382,-0.0384,-0.0386,-0.0457,-0.0457,0,0,0,0,0,0,-0.0157,-0.0169,-0.0191,-0.0193,-0.0184,-0.0216,-0.0222,-0.0224,-0.0279,-0.0287,-0.0247,-0.0249,-0.0329,-0.0338,-0.0346,-0.0358,-0.0383,-0.0386,-0.0388,-0.0458,-0.0457,-0.0457,0,0,0,0,0,0,-0.0156,-0.0158,-0.0189,-0.0181,-0.0186,-0.0216,-0.0218,-0.0224,-0.0233,-0.0282,-0.0292,-0.025,-0.033,-0.0341,-0.037,-0.0363,-0.0388,-0.0391,-0.0458,-0.0458,-0.0457,-0.0386,0,0,0,0,0,0,-0.0155,-0.0158,-0.0155,-0.018,-0.0186,-0.0192,-0.0218,-0.0225,-0.0234,-0.0237,-0.0288,-0.0297,-0.0331,-0.0364,-0.0373,-0.0368,-0.0394,-0.0458,-0.0458,-0.0457,-0.0389,-0.0384,-0.0379,0,0,0,0,0,-0.0154,-0.0143,-0.0155,-0.0158,-0.0182,-0.0191,-0.0196,-0.022,-0.0233,-0.0231,-0.0267,-0.0296,-0.0368,-0.0367,-0.0378,-0.0373,-0.0458,-0.0458,-0.0457,-0.0391,-0.0385,-0.0379,0,0,0,0,0,0,-0.0126,-0.0147,-0.0161,-0.0156,-0.017,-0.0197,-0.0197,-0.0214,-0.024,-0.0245,-0.0293,-0.0305,-0.0329,-0.036,-0.0358,-0.0393,-0.0418,-0.042,-0.0364,-0.0358,-0.0354,-0.0371,-0.0397,0,0,0,0,0,-0.0119,-0.0119,-0.0141,-0.0137,-0.0142,-0.017,-0.0177,-0.0192,-0.0217,-0.0229,-0.0264,-0.0303,-0.0335,-0.0353,-0.0387,-0.0405,-0.0436,-0.041,-0.0405,-0.04,-0.0423,-0.0448,-0.0447,-0.0456,-0.0456,-0.0456,0,0,-0.0107,-0.0118,-0.0119,-0.0132,-0.0146,-0.0142,-0.0175,-0.0179,-0.0175,-0.0236,-0.0245,-0.0287,-0.0336,-0.0357,-0.037,-0.0382,-0.0409,-0.04,-0.0395,-0.0421,-0.0447,-0.0446,-0.0445,-0.0455,-0.0455,-0.0455,0,0,-0.0077,-0.0093,-0.0082,-0.0089,-0.0103,-0.0119,-0.0116,-0.0141,-0.0153,-0.0169,-0.0211,-0.0254,-0.0293,-0.0334,-0.0358,-0.0349,-0.0382,-0.0349,-0.034,-0.0362,-0.0362,-0.0362,-0.0375,-0.0377,-0.0346,-0.0346,-0.0346,0,-0.0062,-0.0051,-0.0079,-0.0067,-0.0066,-0.0103,-0.0086,-0.0101,-0.0132,-0.014,-0.0163,-0.0239,-0.0288,-0.0319,-0.0329,-0.0339,-0.0352,-0.0353,-0.0355,-0.0356,-0.0357,-0.0371,-0.0374,-0.0342,-0.0343,-0.0343,-0.0344,0,-0.0024,-0.0015,-0.0007,-0.0007,-0.0009,0.0,-0.0022,-0.003,-0.0054,-0.0075,-0.0112,-0.0184,-0.0231,-0.0251,-0.0298,-0.0328,-0.0332,-0.0342,-0.0366,-0.0352,-0.0367,-0.0372,-0.0337,-0.0339,-0.034,-0.0341,0,0,0.0012,0.0019,0.0023,0.0037,0.0025,0.0031,0.0034,0.0027,0.0034,-0.0019,-0.0022,-0.0115,-0.0161,-0.0196,-0.025,-0.0298,-0.0325,-0.033,-0.0333,-0.0338,-0.0363,-0.0365,-0.037,-0.0324,-0.0325,-0.0326,-0.036,0,0.0052,0.0092,0.008,0.0119,0.0139,0.011,0.0122,0.0107,0.0081,0.0068,-0.0017,-0.0044,-0.013,-0.0155,-0.0216,-0.0297,-0.0338,-0.0315,-0.0384,-0.0386,-0.0385,-0.0376,-0.0345,-0.0373,-0.0365,-0.0366,-0.0366,0,0.0095,0.0117,0.0162,0.019,0.0197,0.021,0.022,0.0223,0.0189,0.0167,0.0109,0.0054,-0.0036,-0.0103,-0.0238,-0.0212,-0.0295,-0.0363,-0.0365,-0.0405,-0.0398,-0.0394,-0.0383,-0.0374,-0.0374,-0.0373,-0.0373,0,0.0141,0.0177,0.0217,0.0225,0.0246,0.0259,0.0266,0.0251,0.0274,0.0224,0.0232,0.0127,0.0092,-0.0039,-0.0191,-0.0209,-0.0326,-0.0353,-0.043,-0.043,-0.0442,-0.0441,-0.0449,-0.0449,-0.0449,-0.0449,-0.0449,0,0.019,0.0224,0.0242,0.0265,0.0322,0.0311,0.036,0.0347,0.0351,0.0391,0.0285,0.0297,0.0104,0.0021,-0.0143,-0.0292,-0.0278,-0.0441,-0.0445,-0.0413,-0.041,-0.045,-0.045,-0.045,-0.045,-0.045,-0.045,0,0.0233,0.0243,0.0295,0.0328,0.0345,0.0381,0.0436,0.0476,0.0461,0.0508,0.0502,0.0436,0.0322,0.0137,-0.0056,-0.02,-0.0362,-0.0415,-0.0363,-0.0363,-0.0465,-0.0461,-0.0514,-0.0514,-0.0515,-0.0515,-0.0515,0,0.0259,0.0288,0.0344,0.0385,0.0402,0.0457,0.0508,0.0523,0.0579,0.0603,0.0645,0.0564,0.0518,0.0242,-0.0026,-0.0283,-0.033,-0.0417,-0.0472,-0.0476,-0.0475,-0.047,-0.0465,-0.0447,-0.0447,-0.0447,-0.0447,0,0.0311,0.0325,0.0368,0.0452,0.0512,0.0589,0.0663,0.0731,0.0763,0.0807,0.0862,0.0827,0.0577,0.0331,-0.0015,-0.0193,-0.0382,-0.042,-0.0427,-0.0436,-0.0417,-0.0414,-0.0411,-0.0445,-0.0445,-0.0445,-0.0445,-0.0445,0.0349,0.0389,0.0447,0.0528,0.0607,0.0715,0.079,0.0879,0.0979,0.1055,0.1025,0.0986,0.0698,0.0264,-0.004,-0.0353,-0.0361,-0.0478,-0.0478,-0.0478,-0.0464,-0.0447,-0.0477,-0.0477,-0.0478,-0.0478,-0.0478,0,0.0401,0.0448,0.0524,0.0625,0.0721,0.0754,0.0897,0.0971,0.1097,0.1168,0.1198,0.0948,0.0663,0.0339,-0.0127,-0.0419,-0.0447,-0.0499,-0.0475,-0.0475,-0.0475,-0.0461,-0.0474,-0.0475,-0.0476,-0.0476,0,0,0.0432,0.0509,0.0549,0.0705,0.0784,0.0924,0.1011,0.1114,0.1196,0.1258,0.1256,0.1187,0.0784,0.0453,0.0056,-0.0205,-0.0271,-0.0254,-0.0227,-0.0153,-0.0149,-0.0435,-0.041,0,0,0,0,0]}],[{"header":{"parameterUnit":"m.s-1","parameterCategory":2,"la1":30.2991,"la2":30.254,"lo1":-89.0895,"lo2":-89.0444,"dy":0.0017,"dx":0.0017,"nx":28,"ny":28,"refTime":"2025-04-27T09:00:00:Z","depth":"4","parameterNumber":2,"parameterNumberName":"U-component_of_CURRENTS"},"data":[0,0,0,0,0,0,0,0,0,0,0,0,0,0,0,0,0,0,0,0,0,0,0,0,0,0,0,0,0,0,0,0,0,0,0,0,0,0,0,0,0,0,0,0,0,0,0,0,0,0,0,0,0,0,0,0,0,0,0.1376,0.1377,0,0.145,0.1451,0.1452,0.1501,0.1502,0.1502,0.1503,0.1535,0.1535,0.1536,0,0,0,0,0,0,0,0,0,0,0,0,0,0.1263,0.1265,0.1376,0.1377,0.1378,0.145,0.1451,0.1452,0.1501,0.1502,0.1503,0.1503,0.1535,0.1535,0.1536,0,0,0,0,0,0,0,0,0,0,0,0,0,0.1321,0.1265,0.1376,0.1413,0.1417,0.145,0.1451,0.1452,0.1501,0.1502,0.1503,0.1503,0.1534,0.1535,0.1536,0.1524,0,0,0.1537,0.1538,0,0,0,0,0,0,0,0,0.1317,0.1324,0.1406,0.141,0.1415,0.1469,0.1423,0.1475,0.1501,0.1467,0.1503,0.1504,0.1509,0.1512,0.1522,0.1525,0.1527,0.1537,0.1538,0.1538,0.1538,0,0,0,0,0,0,0,0.1313,0.1321,0.1404,0.1407,0.1413,0.1421,0.143,0.1433,0.1481,0.147,0.1475,0.1485,0.1511,0.1522,0.1523,0.1527,0.1537,0.1538,0.1538,0.1538,0.1606,0.1608,0,0,0,0,0,0,0.1308,0.1318,0.1401,0.1406,0.1369,0.1423,0.1433,0.1449,0.1482,0.1489,0.1485,0.1487,0.1521,0.1523,0.1525,0.1581,0.1538,0.1538,0.1539,0.1605,0.1607,0.1608,0,0,0,0,0,0,0.1305,0.1315,0.1398,0.1364,0.1376,0.1424,0.1442,0.1451,0.1492,0.1494,0.1499,0.1521,0.1521,0.1524,0.1555,0.1579,0.1539,0.1539,0.1603,0.1606,0.1608,0.1648,0,0,0,0,0,0,0.1302,0.1313,0.1337,0.1364,0.1378,0.1435,0.1442,0.1451,0.1496,0.1501,0.1526,0.1528,0.1522,0.1554,0.1556,0.1579,0.154,0.1601,0.1604,0.1607,0.1645,0.1652,0.1657,0,0,0,0,0,0.1297,0.1322,0.1338,0.1349,0.1404,0.1436,0.1444,0.1479,0.1497,0.1519,0.1539,0.1529,0.1573,0.1556,0.1557,0.1582,0.16,0.1603,0.1607,0.1642,0.165,0.1657,0,0,0,0,0,0,0.129,0.133,0.1348,0.1386,0.1418,0.1446,0.1475,0.1496,0.153,0.1543,0.1544,0.1547,0.1581,0.158,0.1561,0.1611,0.1586,0.159,0.1613,0.1621,0.1627,0.1621,0.154,0,0,0,0,0,0.1298,0.1327,0.1362,0.1396,0.1415,0.1451,0.1475,0.1498,0.1525,0.1543,0.1559,0.1578,0.1591,0.1606,0.1613,0.1641,0.165,0.166,0.1666,0.1671,0.167,0.1718,0.1728,0.1619,0.1619,0.1619,0,0,0.1305,0.1332,0.135,0.1397,0.1427,0.145,0.1468,0.1512,0.1538,0.1538,0.1585,0.1597,0.1602,0.1632,0.1648,0.1638,0.1708,0.1675,0.1679,0.1675,0.1722,0.1733,0.1742,0.1621,0.1621,0.1621,0,0,0.1318,0.1359,0.1383,0.1409,0.1458,0.1475,0.1494,0.1537,0.1569,0.1606,0.1615,0.1646,0.1669,0.168,0.1685,0.1731,0.1734,0.1742,0.1772,0.182,0.1829,0.1837,0.1865,0.1875,0.175,0.175,0.175,0,0.1327,0.1361,0.1396,0.142,0.1445,0.1487,0.1511,0.1544,0.1593,0.162,0.1627,0.1681,0.1687,0.1722,0.1741,0.1743,0.1769,0.1742,0.1827,0.1835,0.1843,0.1869,0.188,0.1752,0.1752,0.1752,0.1752,0,0.1346,0.1382,0.14,0.1441,0.147,0.1503,0.1543,0.1585,0.1624,0.1652,0.1709,0.1726,0.176,0.1771,0.1768,0.1829,0.1829,0.1825,0.1806,0.1856,0.1881,0.1892,0.1756,0.1755,0.1754,0.1754,0,0,0.1336,0.1401,0.1409,0.143,0.1486,0.1507,0.1558,0.1609,0.1652,0.1701,0.1755,0.1784,0.181,0.1819,0.1833,0.1873,0.1948,0.188,0.1881,0.1902,0.2053,0.1959,0.1961,0.197,0.1972,0.1974,0.205,0,0.1343,0.1385,0.1418,0.1458,0.148,0.1532,0.157,0.1623,0.1679,0.1741,0.1783,0.1837,0.1825,0.1862,0.1898,0.1944,0.1978,0.1927,0.2005,0.2007,0.1913,0.1971,0.198,0.2057,0.206,0.2061,0.2063,0,0.1343,0.1373,0.1413,0.1467,0.1483,0.1513,0.1589,0.1635,0.1725,0.1773,0.1837,0.1879,0.1953,0.1938,0.2031,0.2007,0.2031,0.2054,0.2058,0.1959,0.1932,0.1997,0.2081,0.208,0.2079,0.2077,0.2076,0,0.1303,0.1365,0.1398,0.1416,0.1483,0.1519,0.1564,0.1647,0.1701,0.1814,0.1874,0.1947,0.2014,0.206,0.2118,0.2092,0.2216,0.2182,0.211,0.2104,0.2146,0.2137,0.2236,0.2236,0.2236,0.2236,0.2236,0,0.1279,0.1307,0.1387,0.14,0.1442,0.1503,0.1568,0.1628,0.1731,0.1797,0.1897,0.1963,0.2056,0.2137,0.2156,0.2176,0.2252,0.2121,0.2122,0.2162,0.2153,0.2154,0.2143,0.2239,0.2238,0.2237,0.2237,0,0.1221,0.1278,0.1315,0.1395,0.1424,0.1456,0.1562,0.1609,0.1726,0.1824,0.1872,0.2009,0.2116,0.2193,0.2282,0.2223,0.2252,0.2235,0.2285,0.2286,0.209,0.2081,0.2144,0.2142,0.214,0.2138,0.2136,0,0.1193,0.1209,0.1297,0.1319,0.1358,0.1425,0.1469,0.1589,0.1641,0.1834,0.1867,0.203,0.2108,0.2162,0.2238,0.2278,0.2249,0.2236,0.2135,0.2089,0.2084,0.2078,0.2072,0.2133,0.2132,0.2132,0.2131,0,0.113,0.1175,0.1204,0.1254,0.1304,0.1352,0.1429,0.146,0.1607,0.1735,0.1835,0.1914,0.2031,0.2097,0.2158,0.2172,0.2229,0.2211,0.2214,0.2119,0.2076,0.2072,0.2068,0.2123,0.2124,0.2125,0.2126,0,0.1086,0.1089,0.114,0.1173,0.1234,0.1261,0.1312,0.1385,0.1461,0.1667,0.1696,0.1877,0.2009,0.2045,0.2099,0.2119,0.2069,0.1979,0.1993,0.2003,0.1922,0.1845,0.183,0,0,0,0,0,0.1032,0.1029,0.1053,0.1084,0.1141,0.1183,0.1276,0.1335,0.1482,0.1514,0.1601,0.1708,0.1813,0.19,0.1892,0.2026,0.2068,0.2006,0.1968,0.2081,0.209,0.2009,0,0,0,0,0,0,0.0994,0.1015,0.1022,0.1011,0.102,0.1077,0.1138,0.1234,0.1254,0.1413,0.1481,0.1607,0.1732,0.181,0.1862,0.1888,0.1829,0.2112,0.2108,0.2076,0.2084,0.2091,0.2011,0,0,0,0,0]},{"header":{"parameterUnit":"m.s-1","parameterCategory":2,"la1":30.2991,"la2":30.254,"lo1":-89.0895,"lo2":-89.0444,"dy":0.0017,"dx":0.0017,"nx":28,"ny":28,"refTime":"2025-04-27T09:00:00:Z","depth":"4","parameterNumber":3,"parameterNumberName":"V-component_of_CURRENTS"},"data":[0,0,0,0,0,0,0,0,0,0,0,0,0,0,0,0,0,0,0,0,0,0,0,0,0,0,0,0,0,0,0,0,0,0,0,0,0,0,0,0,0,0,0,0,0,0,0,0,0,0,0,0,0,0,0,0,0,0,-0.0092,-0.0092,0,-0.0127,-0.0128,-0.0128,-0.0157,-0.0157,-0.0157,-0.0157,-0.0204,-0.0205,-0.0206,0,0,0,0,0,0,0,0,0,0,0,0,0,-0.0049,-0.005,-0.0091,-0.0092,-0.0092,-0.0127,-0.0128,-0.0129,-0.0157,-0.0157,-0.0157,-0.0157,-0.0203,-0.0205,-0.0206,0,0,0,0,0,0,0,0,0,0,0,0,0,-0.0075,-0.005,-0.0091,-0.011,-0.0112,-0.0127,-0.0128,-0.0129,-0.0156,-0.0157,-0.0157,-0.0157,-0.0203,-0.0205,-0.0206,-0.021,0,0,-0.0211,-0.0212,0,0,0,0,0,0,0,0,-0.0074,-0.0077,-0.0107,-0.0109,-0.0111,-0.0137,-0.013,-0.0156,-0.0156,-0.014,-0.0157,-0.0158,-0.0182,-0.0185,-0.0192,-0.0212,-0.0214,-0.0211,-0.0212,-0.0213,-0.0213,0,0,0,0,0,0,0,-0.0072,-0.0075,-0.0106,-0.0107,-0.011,-0.0117,-0.0121,-0.0135,-0.016,-0.0142,-0.0144,-0.0146,-0.0183,-0.019,-0.0193,-0.0214,-0.0211,-0.0212,-0.0213,-0.0214,-0.0236,-0.0235,0,0,0,0,0,0,-0.0065,-0.0074,-0.0105,-0.0107,-0.0092,-0.0117,-0.0122,-0.0129,-0.0159,-0.0164,-0.0146,-0.0148,-0.0188,-0.0192,-0.0195,-0.0182,-0.0213,-0.0214,-0.0215,-0.0236,-0.0236,-0.0235,0,0,0,0,0,0,-0.0064,-0.0068,-0.0104,-0.009,-0.0095,-0.0118,-0.0125,-0.013,-0.0139,-0.0162,-0.0167,-0.0151,-0.0188,-0.0193,-0.0203,-0.0185,-0.0215,-0.0216,-0.0237,-0.0236,-0.0235,-0.0169,0,0,0,0,0,0,-0.0063,-0.0068,-0.0072,-0.009,-0.0096,-0.0107,-0.0125,-0.013,-0.014,-0.0142,-0.0168,-0.0173,-0.0189,-0.0201,-0.0205,-0.0188,-0.0217,-0.0237,-0.0236,-0.0236,-0.0171,-0.0166,-0.0161,0,0,0,0,0,-0.0062,-0.0063,-0.0072,-0.0076,-0.0101,-0.0107,-0.011,-0.0128,-0.0139,-0.0138,-0.0156,-0.0172,-0.0199,-0.0202,-0.0207,-0.0189,-0.0237,-0.0237,-0.0236,-0.0174,-0.0167,-0.0161,0,0,0,0,0,0,-0.005,-0.0066,-0.0077,-0.0084,-0.0093,-0.0111,-0.0114,-0.0126,-0.014,-0.0144,-0.0168,-0.0174,-0.0176,-0.0195,-0.0197,-0.0195,-0.0221,-0.0221,-0.0172,-0.0166,-0.0161,-0.0138,-0.0219,0,0,0,0,0,-0.0048,-0.0052,-0.0068,-0.0074,-0.0077,-0.0096,-0.0102,-0.0112,-0.0126,-0.0133,-0.0151,-0.0168,-0.0176,-0.0181,-0.0196,-0.0195,-0.0223,-0.0188,-0.0183,-0.0178,-0.0164,-0.0191,-0.0187,-0.0233,-0.0233,-0.0233,0,0,-0.0046,-0.0055,-0.0058,-0.0071,-0.0081,-0.0071,-0.01,-0.0106,-0.0093,-0.0136,-0.013,-0.0153,-0.0174,-0.017,-0.0173,-0.0183,-0.0185,-0.0177,-0.0173,-0.0161,-0.019,-0.0186,-0.0182,-0.0232,-0.0232,-0.0232,0,0,-0.003,-0.005,-0.0041,-0.0043,-0.0052,-0.0058,-0.0058,-0.0073,-0.0078,-0.0079,-0.0101,-0.011,-0.0131,-0.0133,-0.0138,-0.0116,-0.0159,-0.0127,-0.0078,-0.0105,-0.0101,-0.0098,-0.0145,-0.0146,-0.0122,-0.0121,-0.0121,0,-0.0024,-0.0017,-0.0039,-0.0026,-0.0017,-0.0047,-0.0025,-0.0032,-0.0048,-0.0044,-0.0068,-0.0086,-0.0107,-0.0089,-0.0081,-0.0101,-0.0135,-0.0097,-0.0097,-0.0095,-0.0093,-0.0141,-0.0144,-0.0118,-0.0119,-0.0119,-0.0119,0,0.0004,0.0012,0.0018,0.0029,0.0035,0.0045,0.004,0.0041,0.0027,0.002,0.0023,-0.0009,-0.0018,-0.0027,-0.0045,-0.0034,-0.0072,-0.009,-0.0109,-0.0084,-0.0137,-0.0141,-0.0113,-0.0115,-0.0116,-0.0116,0,0,0.0016,0.0035,0.0039,0.0061,0.0067,0.0078,0.0101,0.0116,0.0133,0.0108,0.0126,0.0111,0.0082,0.0074,0.0045,0.0026,0.0003,-0.0021,-0.0024,-0.006,-0.0077,-0.01,-0.0108,-0.002,-0.002,-0.002,-0.0125,0,0.0049,0.009,0.0094,0.0143,0.0166,0.0161,0.019,0.0199,0.0189,0.0193,0.0164,0.0161,0.0124,0.0114,0.0093,0.0023,-0.0002,0.0032,-0.0101,-0.0105,-0.0123,-0.011,-0.002,-0.0128,-0.0129,-0.013,-0.013,0,0.0083,0.0108,0.016,0.0209,0.022,0.0246,0.0285,0.0307,0.0306,0.0292,0.028,0.0245,0.0221,0.0177,0.0084,0.0102,0.0025,-0.0033,-0.0039,-0.0081,-0.0134,-0.0156,-0.0138,-0.0137,-0.0137,-0.0136,-0.0136,0,0.0111,0.016,0.0205,0.022,0.0266,0.0294,0.032,0.0337,0.0362,0.035,0.0349,0.0308,0.0276,0.0192,0.007,0.0073,-0.0052,-0.0067,-0.0159,-0.0164,-0.0141,-0.0143,-0.0127,-0.0127,-0.0127,-0.0126,-0.0126,0,0.0148,0.0185,0.0221,0.0246,0.031,0.0331,0.039,0.0401,0.042,0.0449,0.04,0.0393,0.0277,0.0191,0.0084,-0.0056,-0.0047,-0.0145,-0.0183,-0.0114,-0.0112,-0.0145,-0.0146,-0.013,-0.0129,-0.0129,-0.0128,0,0.0171,0.0192,0.0248,0.0301,0.0324,0.0369,0.0436,0.0475,0.048,0.051,0.0508,0.0446,0.0329,0.0201,0.0044,-0.0043,-0.0171,-0.0224,-0.0154,-0.0188,-0.027,-0.0266,-0.0326,-0.0328,-0.0329,-0.033,-0.0331,0,0.0186,0.0215,0.0282,0.0319,0.0344,0.041,0.046,0.0497,0.0532,0.054,0.0552,0.0459,0.0396,0.0163,0.0015,-0.0196,-0.0222,-0.0295,-0.0257,-0.0255,-0.0286,-0.028,-0.0275,-0.0333,-0.0333,-0.0334,-0.0334,0,0.0216,0.0235,0.0279,0.0349,0.0405,0.0476,0.0541,0.0571,0.0611,0.0616,0.059,0.0481,0.0342,0.0164,-0.0011,-0.0158,-0.0246,-0.0309,-0.0306,-0.0271,-0.0264,-0.0293,-0.0286,-0.0339,-0.0338,-0.0337,-0.0337,0,0.0235,0.0265,0.0316,0.0381,0.0452,0.052,0.0556,0.0598,0.0636,0.0645,0.0625,0.0491,0.0411,0.0181,0.0023,-0.0129,-0.0158,-0.0194,-0.0198,-0.0196,-0.0125,-0.0094,-0.0142,0,0,0,0,0,0.0253,0.0286,0.0345,0.0417,0.0486,0.0528,0.0604,0.0632,0.0665,0.0659,0.065,0.0526,0.0303,0.0203,0.0049,-0.0017,-0.02,-0.0204,-0.0248,-0.0363,-0.0358,-0.0298,0,0,0,0,0,0,0.0265,0.0316,0.0345,0.0433,0.0483,0.0565,0.0614,0.0638,0.0635,0.0643,0.0528,0.0483,0.0262,0.039,0.0045,-0.0003,-0.0052,-0.0306,-0.0309,-0.0366,-0.0361,-0.0357,-0.0294,0,0,0,0,0]}]]